Location: London
(51.5074°N, 0.1278°W)
Time: 22:50:23
(UTC+01:00)

DELFI C3 - Pass Details

Date: 29 September 2020
Orbit: 535 x 549 km, 97.4° (Epoch: 22 October)

Event Time Altitude Azimuth Distance (km) Brightness Sun altitude
Exits shadow 20:06:34 19° 134° (SE) 1,312 ? -13.9°
Maximum altitude 20:09:00 44° 70° (ENE) 759 ? -14.3°
Drops below altitude 10° 20:12:46 10° 358° (N) 1,829 ? -14.9°
Sets 20:14:58 0° 352° (N) 2,730 ? -15.2°
